Cloud_Cover
100 100 100 100 100 100 78 95 85 100 100 39 99 100 6 16 51 13 7 5 5 5 95 88 96 100 100 100 100 100 100 82 17 100 100 100 91 100 100 100 100 100 98
100 100 100 100 100 100 100 97 96 100 100 100 72 100 85 37 40 52 46 8 5 5 100 100 100 98 100 100 100 100 100 94 100 100 93 98 92 90 99 86 82 74 50
100 100 100 100 100 100 100 100 100 100 100 100 100 100 100 100 88 51 71 28 12 8 36 88 100 100 100 100 100 90 94 100 94 93 88 73 80 64 85 35 8 1 66
100 98 100 100 100 100 100 100 100 100 100 100 100 98 100 100 68 42 70 76 69 38 71 100 100 45 71 99 100 100 100 100 100 71 12 0 10 64 1 1 4 14 2
100 100 100 100 100 100 100 100 100 100 100 100 100 100 100 100 75 50 81 96 100 94 44 79 64 98 12 78 49 14 30 100 97 29 47 5 5 5 2 4 10 33 35
100 100 100 100 100 100 100 100 100 100 100 100 100 100 100 100 78 89 100 68 95 97 78 8 21 90 38 60 53 60 99 100 14 93 14 10 9 7 5 5 20 17 5
82 82 100 100 100 100 100 100 100 100 100 100 100 100 100 100 100 100 82 60 83 69 37 75 15 25 71 86 98 99 52 100 99 78 19 12 22 28 5 52 29 5 5
100 55 100 100 100 100 100 99 100 100 100 100 97 94 97 100 100 84 100 100 100 100 79 39 38 10 34 84 45 100 100 100 100 100 100 72 91 25 19 97 33 89 78
100 86 100 100 100 100 100 100 100 100 100 100 100 100 98 100 100 100 94 100 81 56 56 65 81 99 16 5 67 100 100 100 100 100 81 66 100 95 88 100 93 81 57
82 74 100 100 100 100 100 100 100 100 100 100 100 100 100 100 100 100 100 100 100 96 93 100 70 18 5 51 100 100 100 100 100 100 100 100 99 7 14 92 100 96 97
93 100 100 100 100 100 100 100 100 100 100 100 100 100 100 100 100 100 100 100 100 100 100 61 48 80 12 5 7 71 91 68 100 100 74 100 50 94 98 32 100 71 100
100 100 100 100 100 100 100 100 100 100 100 100 100 100 100 100 100 100 99 85 100 100 100 80 13 5 5 5 79 91 5 74 28 82 56 5 11 27 62 100 100 66 100
100 100 100 100 100 100 100 100 100 100 100 100 100 100 100 99 89 100 96 94 100 60 100 100 97 5 5 5 18 6 5 5 5 5 5 88 100 98 88 100 99 7 81
100 100 100 100 100 100 100 100 100 100 100 100 100 100 100 100 88 100 99 100 94 86 100 100 91 11 5 65 73 99 38 5 7 62 89 90 74 97 95 69 91 65 25
100 100 100 100 100 100 100 100 100 100 100 100 100 100 100 100 97 92 100 100 94 94 57 30 19 26 80 59 27 14 5 36 84 94 18 13 5 8 85 92 80 100 5
90 100 100 100 100 100 100 100 100 100 100 100 100 100 99 100 100 100 100 100 85 100 100 60 48 58 87 86 95 5 5 100 100 68 5 5 5 5 20 92 100 86 4
100 100 100 100 100 100 100 100 100 100 100 100 100 100 100 100 100 100 100 100 100 100 100 83 100 100 84 72 78 100 99 95 100 25 12 5 33 100 100 100 61 100 92
99 100 100 100 100 100 100 100 100 100 100 100 100 100 100 100 100 100 100 100 100 100 100 100 100 96 100 79 95 100 84 99 100 49 88 100 100 81 100 100 100 100 94
100 100 100 100 100 100 100 100 100 100 100 100 100 100 100 100 100 100 100 100 100 100 100 100 100 86 92 27 100 100 100 100 100 100 100 100 100 100 100 100 100 100 99
100 100 100 100 100 100 100 100 100 100 100 100 100 100 100 100 100 100 100 100 100 100 100 100 100 100 86 65 100 100 100 100 100 100 100 100 100 100 100 100 100 100 100
100 100 100 100 100 100 100 100 100 100 100 100 100 100 100 100 100 100 100 100 100 100 100 100 100 100 100 100 100 100 100 100 96 100 100 100 100 98 100 100 100 100 100
100 100 100 100 100 100 100 100 100 100 100 100 100 100 100 100 100 100 100 100 100 100 100 100 100 100 100 100 100 100 100 100 100 100 100 100 100 100 100 100 100 91 100
100 100 100 100 100 100 100 100 100 100 100 100 100 100 100 100 100 100 100 100 100 100 100 100 100 100 100 100 100 100 100 100 100 100 100 100 100 100 100 100 100 100 100
95 100 100 100 100 100 100 100 100 100 100 100 100 100 100 100 100 100 100 100 100 100 100 100 100 100 100 100 100 100 100 100 100 100 100 100 100 100 100 100 99 100 100
100 100 100 100 100 100 100 100 100 100 100 100 100 100 100 100 100 100 100 100 100 100 100 100 100 100 100 100 100 100 100 100 100 100 100 100 100 100 100 100 100 100 100
100 100 100 100 100 100 100 100 100 100 100 100 100 100 100 100 100 100 100 100 100 100 100 100 100 100 100 100 100 100 100 100 100 100 100 100 100 100 100 100 100 100 100